User: anonymous   Login
Location: ??????
(44.5958°N, 34.0092°E)
Time: 03:21:25
(UTC+00:00)
Language:

STARLINK-1337 - Orbit

View from above orbital plane
View from above orbital plane
View from above satellite
View from above satellite

Ground track
Ground track

The orbit data is extracted from the following two-line orbital elements,

1 45582U 20025BD  20221.91667824 -.01074443 +00000-0 -35527-1 0  9991
2 45582 053.0021 230.4449 0001415 057.0694 202.1774 15.33629086001765
Epoch (UTC): 08 August 2020 22:00:01
Eccentricity: 0.0001415
inclination: 53.0021°
perigee height: 464 km
apogee height: 466 km
right ascension of ascending node: 230.4449°
argument of perigee: 57.0694°
revolutions per day: 15.33629086
mean anomaly at epoch: 202.1774°
orbit number at epoch: 176

The dashed part of the orbit path shows where the satellite is in the earth's shadow,  

DLR